Weather History for Belleville, IL

Change the Weather History Date:

Tuesday, November 20, 2012

  Actual Average Record
Temperature  
Mean Temperature 50 °F -  
Max Temperature 61 °F 55 °F 73 °F (2003)
Min Temperature 38 °F 35 °F 17 °F (2014)
Degree Days  
Heating Degree Days 16    
Moisture  
Dew Point 46 °F    
Average Humidity 83    
Maximum Humidity 99    
Minimum Humidity 66    
Precipitation  
Precipitation 0.00 in - - ()
Sea Level Pressure  
Sea Level Pressure 30.13 in    
Wind  
Wind Speed 3 mph (NW)    
Max Wind Speed 9 mph    
Max Gust Speed -    
Visibility 10 miles    
Events      
Averages and records for this station are not official NWS values.
T = Trace of Precipitation, MM = Missing Value Source: NWS Daily Summary

Daily Weather History Graph

Daily Weather History Graph

Search for Another Location

Airport:

Trip Planner

Search our weather history database for the weather conditions in past years. The results will help you decide how hot, cold, wet, or windy it might be!

Date:

Astronomy

Nov. 20, 2012 Rise Set
Actual Time 6:47 AM CST 4:42 PM CST
Civil Twilight 6:18 AM CST 5:11 PM CST
Nautical Twilight 5:46 AM CST 5:43 PM CST
Astronomical Twilight 5:14 AM CST 6:15 PM CST
Moon 12:24 PM CST (11/20) No Moon Set
Length of Visible Light 10h 52m
Length of Day
9h 55m
First Quarter, 51% of the Moon is Illuminated
Nov 20
First Quarter
Nov 28
Full
Dec 6
Last Quarter
Dec 13
New
Dec 19
First Quarter

Hourly Weather History & Observations

Time (CST) Temp. Windchill Dew Point Humidity Pressure Visibility Wind Dir Wind Speed Gust Speed Precip Events Conditions
12:55 AM 48.9 °F - 42.3 °F 78% 30.12 in 10.0 mi South 3.5 mph - N/A   Overcast
1:55 AM 49.1 °F - 41.5 °F 75% 30.12 in 10.0 mi Calm Calm - N/A   Overcast
2:55 AM 46.8 °F - 39.9 °F 77% 30.12 in 10.0 mi South 3.5 mph - N/A   Clear
3:55 AM 43.7 °F - 39.9 °F 87% 30.10 in 10.0 mi Calm Calm - N/A   Clear
4:55 AM 40.5 °F - 38.8 °F 94% 30.10 in 10.0 mi Calm Calm - N/A   Clear
5:55 AM 38.5 °F - 37.4 °F 96% 30.10 in 10.0 mi Calm Calm - N/A   Clear
6:55 AM 38.1 °F - 37.4 °F 97% 30.10 in 10.0 mi Calm Calm - N/A   Clear
7:55 AM 40.5 °F - 39.0 °F 95% 30.12 in 10.0 mi Calm Calm - N/A   Clear
8:55 AM 47.5 °F - 44.4 °F 89% 30.12 in 10.0 mi Calm Calm - N/A   Clear
9:55 AM 55.4 °F - 47.8 °F 76% 30.12 in 10.0 mi WNW 6.9 mph - N/A   Clear
10:55 AM 56.5 °F - 48.0 °F 73% 30.12 in 10.0 mi NNW 4.6 mph - N/A   Partly Cloudy
11:55 AM 58.6 °F - 48.7 °F 70% 30.09 in 10.0 mi NNW 5.8 mph - N/A   Clear
12:55 PM 59.7 °F - 49.1 °F 68% 30.08 in 10.0 mi Calm Calm - N/A   Clear
1:55 PM 60.8 °F - 49.5 °F 66% 30.08 in 10.0 mi WNW 3.5 mph - N/A   Clear
2:55 PM 61.2 °F - 49.6 °F 66% 30.09 in 10.0 mi WNW 9.2 mph - N/A   Mostly Cloudy
3:29 PM 60.8 °F - 50.0 °F 68% 30.10 in 10.0 mi WNW 6.9 mph - N/A   Mostly Cloudy
3:55 PM 58.8 °F - 49.6 °F 72% 30.10 in 10.0 mi WNW 8.1 mph - N/A   Mostly Cloudy
4:55 PM 53.2 °F - 47.7 °F 81% 30.12 in 10.0 mi NW 4.6 mph - N/A   Clear
5:55 PM 52.5 °F - 48.6 °F 86% 30.15 in 10.0 mi North 4.6 mph - N/A   Mostly Cloudy
6:06 PM 55.4 °F - 48.2 °F 77% 30.15 in 10.0 mi NW 4.6 mph - N/A   Overcast
6:55 PM 54.0 °F - 49.5 °F 85% 30.17 in 10.0 mi NNW 3.5 mph - N/A   Overcast
7:55 PM 53.6 °F - 49.6 °F 86% 30.17 in 10.0 mi NNW 3.5 mph - N/A   Overcast
8:55 PM 54.0 °F - 50.0 °F 86% 30.19 in 10.0 mi NW 5.8 mph - N/A   Overcast
9:55 PM 51.4 °F - 48.6 °F 90% 30.19 in 10.0 mi NNW 4.6 mph - N/A   Scattered Clouds
10:20 PM 48.2 °F - 46.4 °F 93% 30.19 in 9.0 mi Calm Calm - N/A   Clear
10:55 PM 48.4 °F - 48.0 °F 99% 30.19 in 8.0 mi Calm Calm - N/A   Clear
11:55 PM 45.0 °F 41.2 °F 44.6 °F 99% 30.20 in 6.0 mi NW 6.9 mph - N/A   Clear